Radioactive Concentration measured by Seawater Radiation Monitor near Fukushima Daiichi Nuclear Power Station
Date,Time,Cs137(Bq/L),Cs134(Bq/L),Total β(Bq/L)
2016/10/24,00:00,0.85,0.095,ND
2016/10/24,00:10,0.88,0.084,9.2
2016/10/24,00:20,0.91,0.086,ND
2016/10/24,00:30,0.92,0.098,8.9
2016/10/24,00:40,0.95,0.092,ND
2016/10/24,00:50,0.95,0.091,ND
2016/10/24,01:00,0.92,0.099,ND
2016/10/24,01:10,0.92,0.10,ND
2016/10/24,01:20,0.94,0.097,ND
2016/10/24,01:30,0.98,0.11,ND
2016/10/24,01:40,0.95,0.097,ND
2016/10/24,01:50,0.94,0.098,ND
2016/10/24,02:00,0.95,0.094,ND
2016/10/24,02:10,0.99,0.11,ND
2016/10/24,02:20,0.96,0.091,ND
2016/10/24,02:30,0.95,0.090,ND
2016/10/24,02:40,0.93,0.11,ND
2016/10/24,02:50,0.90,0.11,ND
2016/10/24,03:00,0.92,0.11,ND
2016/10/24,03:10,0.88,0.11,ND
2016/10/24,03:20,0.88,0.11,ND
2016/10/24,03:30,0.88,0.11,ND
2016/10/24,03:40,0.87,0.10,ND
2016/10/24,03:50,0.91,0.098,ND
2016/10/24,04:00,0.89,0.099,ND
2016/10/24,04:10,0.92,0.094,10
2016/10/24,04:20,0.96,0.11,12
2016/10/24,04:30,0.98,0.11,9.2
2016/10/24,04:40,1.0,0.10,9.3
2016/10/24,04:50,0.98,0.11,12
2016/10/24,05:00,0.97,0.11,11
2016/10/24,05:10,0.94,0.098,ND
2016/10/24,05:20,0.91,0.11,ND
2016/10/24,05:30,0.89,0.11,ND
2016/10/24,05:40,0.89,0.15,ND
2016/10/24,05:50,0.89,0.11,ND
2016/10/24,06:00,0.91,0.11,ND
2016/10/24,06:10,0.90,0.12,ND
2016/10/24,06:20,0.93,0.11,ND
2016/10/24,06:30,0.96,0.11,ND
2016/10/24,06:40,0.97,0.11,ND
2016/10/24,06:50,0.98,0.11,ND
2016/10/24,07:00,1.0,0.099,ND
2016/10/24,07:10,1.0,0.092,9.9
2016/10/24,07:20,1.0,0.084,8.8
2016/10/24,07:30,1.0,0.082,9.5
2016/10/24,07:40,1.0,0.11,ND
2016/10/24,07:50,0.99,0.13,ND
2016/10/24,08:00,1.0,0.13,ND
2016/10/24,08:10,0.98,0.099,ND
2016/10/24,08:20,0.96,0.15,ND
2016/10/24,08:30,0.95,0.11,ND
2016/10/24,08:40,0.93,0.11,ND
2016/10/24,08:50,0.95,0.11,ND
2016/10/24,09:00,0.95,0.10,ND
2016/10/24,09:10,0.97,0.098,ND
2016/10/24,09:20,0.96,0.10,ND
2016/10/24,09:30,0.94,0.11,ND
2016/10/24,09:40,0.96,0.10,ND
2016/10/24,09:50,0.93,0.11,ND
2016/10/24,10:00,0.90,0.11,ND
2016/10/24,10:10,0.88,0.11,ND
2016/10/24,10:20,0.90,0.098,ND
2016/10/24,10:30,-,-,-
2016/10/24,10:40,-,-,-
2016/10/24,10:50,-,-,-
2016/10/24,11:00,0.88,0.10,10
2016/10/24,11:10,0.90,0.10,11
2016/10/24,11:20,0.91,0.095,9.3
2016/10/24,11:30,0.90,0.10,10
2016/10/24,11:40,0.91,0.099,9.9
2016/10/24,11:50,0.92,0.10,ND
2016/10/24,12:00,0.89,0.10,ND
2016/10/24,12:10,0.89,0.089,ND
2016/10/24,12:20,0.89,0.10,ND
2016/10/24,12:30,0.89,0.10,ND
2016/10/24,12:40,0.89,0.10,ND
2016/10/24,12:50,0.90,0.10,ND
2016/10/24,13:00,0.94,0.091,ND
2016/10/24,13:10,0.93,0.10,ND
2016/10/24,13:20,0.93,0.10,ND
2016/10/24,13:30,0.95,0.12,ND
2016/10/24,13:40,0.97,0.12,ND
2016/10/24,13:50,0.99,0.11,ND
2016/10/24,14:00,1.0,0.12,ND
2016/10/24,14:10,1.0,0.12,ND
2016/10/24,14:20,1.1,0.11,ND
2016/10/24,14:30,1.1,0.12,ND
2016/10/24,14:40,1.0,0.12,ND
2016/10/24,14:50,1.0,0.12,ND
2016/10/24,15:00,1.0,0.12,ND
2016/10/24,15:10,1.0,0.11,ND
2016/10/24,15:20,0.98,0.12,ND
2016/10/24,15:30,0.99,0.11,ND
2016/10/24,15:40,1.0,0.099,ND
2016/10/24,15:50,1.0,0.11,ND
2016/10/24,16:00,1.0,0.098,ND
2016/10/24,16:10,1.0,0.10,ND
2016/10/24,16:20,1.0,0.13,ND
2016/10/24,16:30,1.1,0.11,ND
2016/10/24,16:40,1.1,0.11,ND
2016/10/24,16:50,1.0,0.095,ND
2016/10/24,17:00,0.99,0.11,ND
2016/10/24,17:10,1.0,0.095,ND
2016/10/24,17:20,1.0,0.091,ND
2016/10/24,17:30,0.99,0.098,ND
2016/10/24,17:40,0.98,0.11,ND
2016/10/24,17:50,1.0,0.11,ND
2016/10/24,18:00,1.1,0.12,ND
2016/10/24,18:10,1.1,0.11,ND
2016/10/24,18:20,1.1,0.11,ND
2016/10/24,18:30,1.1,0.10,ND
2016/10/24,18:40,1.1,0.10,ND
2016/10/24,18:50,1.1,0.10,ND
2016/10/24,19:00,1.1,0.14,ND
2016/10/24,19:10,1.1,0.14,ND
2016/10/24,19:20,1.0,0.15,ND
2016/10/24,19:30,1.0,0.15,ND
2016/10/24,19:40,1.0,0.16,ND
2016/10/24,19:50,1.1,0.15,ND
2016/10/24,20:00,1.1,0.14,ND
2016/10/24,20:10,1.1,0.15,ND
2016/10/24,20:20,1.1,0.14,ND
2016/10/24,20:30,1.2,0.13,ND
2016/10/24,20:40,1.2,0.11,ND
2016/10/24,20:50,1.2,0.11,ND
2016/10/24,21:00,1.2,0.11,ND
2016/10/24,21:10,1.2,0.11,ND
2016/10/24,21:20,1.2,0.12,ND
2016/10/24,21:30,1.2,0.13,ND
2016/10/24,21:40,1.1,0.14,ND
2016/10/24,21:50,1.1,0.16,ND
2016/10/24,22:00,1.2,0.16,ND
2016/10/24,22:10,1.2,0.15,ND
2016/10/24,22:20,1.1,0.15,ND
2016/10/24,22:30,1.1,0.15,ND
2016/10/24,22:40,1.2,0.16,ND
2016/10/24,22:50,1.2,0.15,ND
2016/10/24,23:00,1.2,0.20,ND
2016/10/24,23:10,1.2,0.16,ND
2016/10/24,23:20,1.2,0.16,ND
2016/10/24,23:30,1.2,0.17,ND
2016/10/24,23:40,1.2,0.16,ND
2016/10/24,23:50,1.2,0.15,ND
